Location: Unspecified
(0.0000°N, 0.0000°E)
Time: 09:48:31
(UTC+00:00)

Star 48B - Visible Passes

Search period start: 05 April 2026 00:00
Search period end: 15 April 2026 00:00
Orbit: 1517 x 35863 km, 19.1° (Epoch: 28 March)

Date Brightness Start Highest point End Pass type
(mag) Time Alt. Az. Time Alt. Az. Time Alt. Az.
5 Apr 10.1 18:07:28 10° WSW 19:59:18 43° WSW 04:12:45 10° ENE visible
6 Apr 10.1 15:44:13 10° WSW 18:18:22 75° SW 02:01:37 10° ENE visible
7 Apr 10.5 13:29:35 10° WSW 19:33:02 89° NNE 23:49:15 10° ENE visible
8 Apr 9.5 11:17:50 10° WSW 19:28:43 64° ENE 21:32:35 10° ENE visible
9 Apr 11.6 13:54:35 10° E 17:26:39 30° E 19:01:09 10° ENE visible
10 Apr 13.4 19:07:22 10° WSW 20:40:02 28° WSW 23:57:05 10° W visible
11 Apr 8.1 04:30:32 10° WNW 04:51:02 50° N 04:58:28 10° E visible
11 Apr 10.0 16:33:32 10° WSW 18:39:07 61° WSW 02:47:12 10° ENE visible
12 Apr 10.2 14:16:09 10° WSW 18:26:25 86° SSW 00:35:38 10° ENE visible
13 Apr 9.9 12:03:29 10° WSW 19:47:34 78° NE 22:21:28 10° ENE visible
14 Apr 8.9 09:52:16 10° WSW 18:07:50 46° ENE 19:59:28 10° ENE visible
